Home   Weather   Deline   Past weeks
Flag for Canada

Past Weather in Deline, Northwest Territories, Canada — Yesterday and Last 2 Weeks

Now
26 °F

Chilly.


Feels Like: 22 °F
Forecast: 28 / 22 °F
Wind: 3 mph from North

Location: Deline

Current Time: Oct 14, 2019 at 1:54:57 am

Latest Report: Oct 14, 2019 at 1:00 am


Visibility: N/A

Pressure: 30.17 "Hg

Humidity: 93%

Dew Point: 24 °F

Location of DelineLocation

Past Weather in Deline — Graph

°F

Deline Temperature Yesterday

Maximum temperature yesterday: 30 °F (at 4:00 pm)
Minimum temperature yesterday: 26 °F (at 9:00 am)
Average temperature yesterday: 28 °F

High & Low Weather Summary for the Past Weeks

 TemperatureHumidityPressure
High53 °F (Oct 1, 3:00 pm)100% (Oct 3, 12:00 pm)30.24 "Hg (Oct 3, 12:00 pm)
Low15 °F (Oct 9, 2:00 am)41% (Sep 29, 4:00 pm)29.49 "Hg (Oct 12, 12:00 am)
Average35 °F79%29.87 "Hg
* Reported Sep 29 12:00 am — Oct 14 12:00 am, Deline. Weather by CustomWeather, © 2019

Note: Actual official high and low records may vary slightly from our data, if they occured in-between our weather recording intervals... More about our weather records

Advertising

Deline Weather History for the Previous 24 Hours

Scroll right to see more
 ConditionsComfort  
Time TempWeatherWind HumidityBarometerVisibility
12:00 am
Mon, Oct 14
26 °FChilly.3 mph93%30.16 "HgN/A
11:00 pm
Sun, Oct 13
26 °FChilly.3 mph93%30.16 "HgN/A
10:00 pm27 °FChilly.2 mph92%30.16 "HgN/A
9:00 pm27 °FChilly.2 mph88%30.15 "HgN/A
8:00 pm29 °FChilly.1 mph78%30.15 "HgN/A
7:00 pm28 °FChilly.2 mph79%30.15 "HgN/A
6:00 pm29 °FChilly.3 mph77%30.15 "HgN/A
5:00 pm29 °FChilly.2 mph73%30.16 "HgN/A
4:00 pm30 °FChilly.2 mph72%30.15 "HgN/A
3:00 pm29 °FChilly.3 mph72%30.16 "HgN/A
2:00 pm29 °FChilly.1 mph73%30.16 "HgN/A
1:00 pm28 °FChilly.2 mph75%30.16 "HgN/A
12:00 pm27 °FChilly.3 mph83%30.16 "HgN/A
11:00 am27 °FChilly.5 mph84%30.16 "HgN/A
10:00 am26 °FChilly.3 mph87%30.16 "HgN/A
9:00 am26 °FChilly.7 mph87%30.16 "HgN/A
8:00 am26 °FChilly.8 mph86%30.15 "HgN/A
7:00 am27 °FChilly.9 mph86%30.14 "HgN/A
6:00 am27 °FChilly.7 mph85%30.13 "HgN/A
5:00 am26 °FChilly.6 mph86%30.12 "HgN/A
4:00 am28 °FChilly.9 mph81%30.11 "HgN/A
3:00 am29 °FChilly.10 mph77%30.09 "HgN/A
2:00 am29 °FChilly.10 mph76%30.07 "HgN/A
1:00 am29 °FChilly.13 mph77%30.06 "HgN/A
Weather by CustomWeather, © 2019

See weather overview